HBIKS LFMD-EGLF

Flight info

Callsign HBIKS
Flight time 1h 38m
Altitude 40000
Route BADOD DCT NEDRU DCT LTP DCT BULOL DCT IDAVO DCT BAGBI DCT SIZZA DCT LAULY DCT BRY DCT CLM DCT KOPOR DCT SOSUN DCT SUBIP/N0424F240 M8 ELDAX
Aircraft CL60/M-SBDE1E2E3FGHIJ1J4J5J7M3RWXYZ/LB1V1D1

Departure

Time 2026-04-25 13:02
Airport Cannes Mandelieu Airport (LFMD)

Arrival

Time 2026-04-25 14:40
Airport Farnborough Airport (EGLF)
Time Latitude Longitude Altitude Speed Heading
2026-04-25 12:29 43.54726 6.95352 26 ft 0 kts 172°
2026-04-25 12:58 43.54720 6.95353 26 ft 0 kts 172°
2026-04-25 12:58 43.54710 6.95353 26 ft 3 kts 198°
2026-04-25 12:58 43.54699 6.95303 25 ft 6 kts 263°
2026-04-25 12:59 43.54741 6.95263 25 ft 10 kts 352°
2026-04-25 12:59 43.54829 6.95247 25 ft 14 kts 352°
2026-04-25 12:59 43.54940 6.95228 25 ft 17 kts 354°
2026-04-25 12:59 43.55074 6.95205 26 ft 20 kts 353°
2026-04-25 13:00 43.55177 6.95187 26 ft 23 kts 353°
2026-04-25 13:00 43.55259 6.95173 26 ft 18 kts 353°
2026-04-25 13:00 43.55432 6.95116 26 ft 8 kts 298°
2026-04-25 13:00 43.55434 6.95036 26 ft 9 kts 262°
2026-04-25 13:01 43.55417 6.94974 26 ft 5 kts 184°
2026-04-25 13:01 43.55408 6.94975 26 ft 2 kts 167°
2026-04-25 13:01 43.55331 6.94992 25 ft 50 kts 173°
2026-04-25 13:01 43.54586 6.95125 59 ft 153 kts 170°
2026-04-25 13:02 43.53450 6.95443 830 ft 180 kts 160°
2026-04-25 13:02 43.52351 6.96014 1552 ft 157 kts 159°
2026-04-25 13:02 43.51387 6.96573 1754 ft 142 kts 158°
2026-04-25 13:02 43.50531 6.97084 1999 ft 131 kts 158°
2026-04-25 13:03 43.49708 6.97586 2383 ft 129 kts 158°
2026-04-25 13:03 43.48970 6.98276 2846 ft 139 kts 138°
2026-04-25 13:03 43.48237 6.99372 3239 ft 169 kts 133°
2026-04-25 13:03 43.47413 7.00695 3867 ft 190 kts 134°
2026-04-25 13:04 43.46327 7.01659 4666 ft 195 kts 170°
2026-04-25 13:04 43.45005 7.01423 5542 ft 197 kts 212°
2026-04-25 13:04 43.44141 7.00055 6392 ft 198 kts 252°
2026-04-25 13:04 43.44148 6.98211 7255 ft 204 kts 292°
2026-04-25 13:05 43.45091 6.96720 8266 ft 222 kts 326°
2026-04-25 13:05 43.46539 6.95627 8981 ft 257 kts 332°
2026-04-25 13:05 43.48271 6.94548 9705 ft 285 kts 339°
2026-04-25 13:05 43.50212 6.93701 10619 ft 304 kts 342°
2026-04-25 13:06 43.51629 6.93102 11105 ft 324 kts 341°
2026-04-25 13:06 43.54590 6.91839 12344 ft 346 kts 342°
2026-04-25 13:06 43.56908 6.90849 13466 ft 354 kts 342°
2026-04-25 13:06 43.59271 6.89838 14560 ft 361 kts 342°
2026-04-25 13:07 43.61701 6.88797 15641 ft 367 kts 342°
2026-04-25 13:07 43.64153 6.87744 16661 ft 373 kts 342°
2026-04-25 13:07 43.66663 6.86665 17599 ft 378 kts 341°
2026-04-25 13:07 43.69191 6.85577 18577 ft 383 kts 342°
2026-04-25 13:08 43.71728 6.84484 19530 ft 386 kts 342°
2026-04-25 13:08 43.74299 6.83341 20473 ft 389 kts 339°
2026-04-25 13:08 43.76748 6.81647 21343 ft 393 kts 330°
2026-04-25 13:08 43.79122 6.79783 22148 ft 398 kts 330°
2026-04-25 13:09 43.81535 6.77900 22976 ft 402 kts 330°
2026-04-25 13:09 43.83276 6.76543 23538 ft 405 kts 330°
2026-04-25 13:09 43.85737 6.74624 24303 ft 409 kts 330°
2026-04-25 13:09 43.88266 6.72651 24999 ft 415 kts 330°
2026-04-25 13:10 43.90793 6.70680 25637 ft 420 kts 330°
2026-04-25 13:10 43.93361 6.68677 26280 ft 424 kts 330°
2026-04-25 13:10 43.95943 6.66662 26872 ft 429 kts 330°
2026-04-25 13:10 43.98584 6.64600 27427 ft 434 kts 330°
2026-04-25 13:11 44.01234 6.62529 27964 ft 438 kts 330°
2026-04-25 13:11 44.03902 6.60443 28504 ft 441 kts 330°
2026-04-25 13:11 44.06591 6.58340 29186 ft 441 kts 330°
2026-04-25 13:11 44.09290 6.56227 29940 ft 438 kts 330°
2026-04-25 13:12 44.11053 6.54846 30435 ft 437 kts 330°
2026-04-25 13:12 44.14584 6.52078 31394 ft 433 kts 329°
2026-04-25 13:12 44.17194 6.50029 32073 ft 431 kts 329°
2026-04-25 13:12 44.18083 6.49331 32299 ft 430 kts 329°
2026-04-25 13:13 44.22458 6.45892 33288 ft 428 kts 329°
2026-04-25 13:13 44.24190 6.44529 33647 ft 427 kts 329°
2026-04-25 13:13 44.26785 6.42485 34183 ft 426 kts 329°
2026-04-25 13:13 44.29383 6.40437 34709 ft 425 kts 329°
2026-04-25 13:14 44.32806 6.37735 35433 ft 424 kts 329°
2026-04-25 13:14 44.34535 6.36370 35772 ft 423 kts 329°
2026-04-25 13:14 44.37946 6.33671 36414 ft 422 kts 329°
2026-04-25 13:14 44.39679 6.32299 36736 ft 421 kts 328°
2026-04-25 13:15 44.43080 6.29605 37362 ft 420 kts 328°
2026-04-25 13:15 44.44568 6.28425 37610 ft 419 kts 329°
2026-04-25 13:15 44.47742 6.25905 38083 ft 419 kts 328°
2026-04-25 13:15 44.49887 6.24201 38386 ft 419 kts 329°
2026-04-25 13:16 44.51582 6.22853 38612 ft 418 kts 328°
2026-04-25 13:16 44.54973 6.20154 39052 ft 418 kts 329°
2026-04-25 13:16 44.57487 6.18150 39376 ft 418 kts 329°
2026-04-25 13:16 44.58653 6.17220 39517 ft 417 kts 328°
2026-04-25 13:17 44.60248 6.15947 39678 ft 418 kts 329°
2026-04-25 13:17 44.63634 6.13242 40012 ft 418 kts 328°
2026-04-25 13:18 44.65334 6.11883 40159 ft 419 kts 328°
2026-04-25 13:18 44.68716 6.09175 40156 ft 425 kts 328°
2026-04-25 13:18 44.73941 6.04984 40147 ft 434 kts 328°
2026-04-25 13:19 44.79248 6.00720 40181 ft 441 kts 328°
2026-04-25 13:19 44.82840 5.97829 40181 ft 445 kts 329°
2026-04-25 13:20 44.89197 5.92701 40186 ft 453 kts 328°
2026-04-25 13:20 44.95647 5.87486 40189 ft 458 kts 329°
2026-04-25 13:21 45.01200 5.82985 40179 ft 457 kts 329°
2026-04-25 13:21 45.06704 5.78513 40161 ft 456 kts 329°
2026-04-25 13:22 45.12226 5.74017 40140 ft 455 kts 328°
2026-04-25 13:23 45.20444 5.67307 40129 ft 455 kts 328°
2026-04-25 13:23 45.25964 5.62787 40101 ft 456 kts 328°
2026-04-25 13:24 45.31467 5.58271 40095 ft 455 kts 328°
2026-04-25 13:24 45.36961 5.53751 40089 ft 455 kts 328°
2026-04-25 13:25 45.42422 5.49249 40093 ft 455 kts 328°
2026-04-25 13:25 45.48078 5.45127 40097 ft 456 kts 333°
2026-04-25 13:26 45.53842 5.41137 40100 ft 456 kts 333°
2026-04-25 13:26 45.58613 5.37825 40098 ft 456 kts 333°
2026-04-25 13:27 45.64328 5.33846 40092 ft 455 kts 332°
2026-04-25 13:27 45.70231 5.29726 40092 ft 456 kts 332°
2026-04-25 13:28 45.75957 5.25717 40094 ft 456 kts 332°
2026-04-25 13:28 45.80727 5.22371 40096 ft 456 kts 332°
2026-04-25 13:29 45.86441 5.18354 40092 ft 456 kts 332°
2026-04-25 13:29 45.93121 5.13644 40091 ft 455 kts 332°
2026-04-25 13:30 46.01670 5.07598 40077 ft 456 kts 332°
2026-04-25 13:31 46.09267 5.02206 40080 ft 456 kts 332°
2026-04-25 13:31 46.15952 4.97449 40073 ft 456 kts 332°
2026-04-25 13:32 46.21653 4.93380 40093 ft 456 kts 332°
2026-04-25 13:32 46.27355 4.89303 40090 ft 455 kts 332°
2026-04-25 13:33 46.32122 4.85885 40092 ft 455 kts 332°
2026-04-25 13:33 46.37788 4.81815 40094 ft 455 kts 332°
2026-04-25 13:34 46.44424 4.77036 40091 ft 455 kts 332°
2026-04-25 13:34 46.50108 4.72933 40102 ft 455 kts 332°
2026-04-25 13:35 46.54845 4.69506 40099 ft 455 kts 332°
2026-04-25 13:35 46.61451 4.64715 40093 ft 455 kts 332°
2026-04-25 13:36 46.67142 4.60577 40091 ft 455 kts 332°
2026-04-25 13:36 46.71905 4.57106 40100 ft 455 kts 332°
2026-04-25 13:37 46.78517 4.52277 40096 ft 455 kts 332°
2026-04-25 13:37 46.84230 4.48093 40096 ft 455 kts 332°
2026-04-25 13:38 46.89883 4.43944 40098 ft 455 kts 332°
2026-04-25 13:38 46.94594 4.40479 40101 ft 456 kts 332°
2026-04-25 13:39 47.00272 4.36292 40101 ft 456 kts 332°
2026-04-25 13:39 47.06899 4.31394 40107 ft 457 kts 331°
2026-04-25 13:40 47.12575 4.27189 40111 ft 456 kts 331°
2026-04-25 13:40 47.18241 4.22980 40112 ft 455 kts 331°
2026-04-25 13:41 47.22948 4.19476 40115 ft 455 kts 331°
2026-04-25 13:41 47.29561 4.14541 40114 ft 455 kts 331°
2026-04-25 13:42 47.35194 4.10326 40110 ft 456 kts 331°
2026-04-25 13:42 47.39419 4.07158 40114 ft 457 kts 331°
2026-04-25 13:43 47.43200 4.04319 40115 ft 457 kts 331°
2026-04-25 13:43 47.49229 3.99781 40116 ft 457 kts 331°
2026-04-25 13:44 47.54933 3.95477 40115 ft 457 kts 331°
2026-04-25 13:44 47.60626 3.91175 40095 ft 455 kts 330°
2026-04-25 13:45 47.65317 3.87600 40106 ft 455 kts 331°
2026-04-25 13:45 47.71906 3.82598 40117 ft 456 kts 331°
2026-04-25 13:46 47.76660 3.78979 40115 ft 457 kts 331°
2026-04-25 13:46 47.82340 3.74644 40118 ft 457 kts 331°
2026-04-25 13:47 47.87313 3.70839 40120 ft 458 kts 331°
2026-04-25 13:48 47.90024 3.68761 40116 ft 458 kts 331°
2026-04-25 13:48 47.95705 3.64399 40119 ft 458 kts 331°
2026-04-25 13:49 48.00451 3.60747 40119 ft 458 kts 331°
2026-04-25 13:49 48.06144 3.56356 40122 ft 458 kts 331°
2026-04-25 13:50 48.12721 3.51269 40125 ft 458 kts 331°
2026-04-25 13:50 48.17847 3.47295 40127 ft 458 kts 331°
2026-04-25 13:51 48.22674 3.43546 40124 ft 458 kts 331°
2026-04-25 13:51 48.27385 3.39878 40124 ft 459 kts 330°
2026-04-25 13:52 48.33067 3.35443 40123 ft 459 kts 330°
2026-04-25 13:52 48.39635 3.30301 40124 ft 459 kts 330°
2026-04-25 13:53 48.44544 3.26946 40127 ft 461 kts 334°
2026-04-25 13:53 48.50468 3.23188 40125 ft 461 kts 334°
2026-04-25 13:54 48.56366 3.19430 40129 ft 461 kts 334°
2026-04-25 13:54 48.62284 3.15647 40129 ft 461 kts 334°
2026-04-25 13:55 48.67617 3.12228 40134 ft 460 kts 334°
2026-04-25 13:55 48.74548 3.07769 40136 ft 461 kts 334°
2026-04-25 13:56 48.79460 3.04600 40134 ft 461 kts 334°
2026-04-25 13:56 48.85368 3.00617 40139 ft 460 kts 329°
2026-04-25 13:57 48.90943 2.95766 40138 ft 459 kts 327°
2026-04-25 13:57 48.96484 2.90907 40138 ft 459 kts 327°
2026-04-25 13:58 49.02051 2.86016 40141 ft 459 kts 327°
2026-04-25 13:58 49.07555 2.81170 40143 ft 458 kts 327°
2026-04-25 13:59 49.14014 2.75468 40145 ft 459 kts 327°
2026-04-25 13:59 49.18590 2.71420 40145 ft 459 kts 327°
2026-04-25 14:00 49.24148 2.66492 40147 ft 460 kts 327°
2026-04-25 14:00 49.29490 2.61744 40141 ft 461 kts 327°
2026-04-25 14:01 49.34906 2.56919 40146 ft 460 kts 327°
2026-04-25 14:01 49.40420 2.51994 40151 ft 460 kts 327°
2026-04-25 14:02 49.45992 2.47004 40149 ft 461 kts 327°
2026-04-25 14:02 49.52047 2.40441 40149 ft 456 kts 314°
2026-04-25 14:03 49.56210 2.33090 40149 ft 454 kts 307°
2026-04-25 14:03 49.59522 2.26803 40155 ft 455 kts 307°
2026-04-25 14:04 49.63541 2.19158 40150 ft 455 kts 307°
2026-04-25 14:04 49.67193 2.12195 40153 ft 454 kts 307°
2026-04-25 14:04 49.69183 2.08391 39965 ft 456 kts 307°
2026-04-25 14:05 49.71169 2.04592 39443 ft 451 kts 307°
2026-04-25 14:05 49.73135 2.00829 38920 ft 444 kts 306°
2026-04-25 14:05 49.75706 1.95897 38226 ft 439 kts 306°
2026-04-25 14:05 49.76960 1.93486 37892 ft 439 kts 307°
2026-04-25 14:06 49.78871 1.89809 37364 ft 439 kts 307°
2026-04-25 14:06 49.80773 1.86145 36825 ft 438 kts 306°
2026-04-25 14:06 49.82688 1.82450 36285 ft 439 kts 306°
2026-04-25 14:06 49.84600 1.78755 35738 ft 440 kts 306°
2026-04-25 14:07 49.86503 1.75074 35197 ft 441 kts 306°
2026-04-25 14:07 49.88440 1.71320 34651 ft 442 kts 306°
2026-04-25 14:07 49.90346 1.67621 34100 ft 444 kts 306°
2026-04-25 14:07 49.92278 1.63868 33555 ft 445 kts 306°
2026-04-25 14:08 49.94293 1.60204 32960 ft 450 kts 309°
2026-04-25 14:08 49.96423 1.56592 32204 ft 450 kts 310°
2026-04-25 14:08 49.98517 1.53037 31530 ft 449 kts 309°
2026-04-25 14:08 50.00632 1.49437 31002 ft 450 kts 309°
2026-04-25 14:09 50.02726 1.45867 30442 ft 450 kts 309°
2026-04-25 14:09 50.04844 1.42254 29887 ft 446 kts 309°
2026-04-25 14:09 50.07536 1.37651 29177 ft 442 kts 310°
2026-04-25 14:09 50.08237 1.36451 28992 ft 441 kts 310°
2026-04-25 14:10 50.10971 1.31763 28264 ft 437 kts 309°
2026-04-25 14:10 50.13023 1.28238 27721 ft 434 kts 309°
2026-04-25 14:10 50.15049 1.24752 27180 ft 431 kts 309°
2026-04-25 14:10 50.17025 1.21348 26658 ft 427 kts 309°
2026-04-25 14:11 50.19024 1.17899 26122 ft 425 kts 309°
2026-04-25 14:11 50.21021 1.14449 25594 ft 422 kts 309°
2026-04-25 14:11 50.22977 1.11063 25075 ft 419 kts 310°
2026-04-25 14:11 50.24923 1.07691 24555 ft 417 kts 310°
2026-04-25 14:12 50.26862 1.04325 24038 ft 414 kts 310°
2026-04-25 14:12 50.28783 1.00988 23526 ft 411 kts 310°
2026-04-25 14:12 50.31342 0.96535 22841 ft 407 kts 310°
2026-04-25 14:12 50.32605 0.94333 22505 ft 405 kts 310°
2026-04-25 14:13 50.34909 0.90313 21883 ft 401 kts 310°
2026-04-25 14:13 50.36149 0.88147 21561 ft 399 kts 310°
2026-04-25 14:13 50.37983 0.84939 21067 ft 396 kts 310°
2026-04-25 14:13 50.39524 0.82241 20651 ft 393 kts 310°
2026-04-25 14:14 50.41927 0.78027 20012 ft 389 kts 310°
2026-04-25 14:14 50.43127 0.75921 19692 ft 386 kts 310°
2026-04-25 14:14 50.44917 0.72774 19210 ft 383 kts 310°
2026-04-25 14:14 50.46701 0.69634 18731 ft 380 kts 311°
2026-04-25 14:15 50.48249 0.66364 18242 ft 376 kts 298°
2026-04-25 14:15 50.48930 0.63818 17953 ft 372 kts 287°
2026-04-25 14:15 50.49549 0.58516 17465 ft 370 kts 279°
2026-04-25 14:15 50.49921 0.54551 17263 ft 370 kts 279°
2026-04-25 14:16 50.50424 0.49216 16903 ft 369 kts 279°
2026-04-25 14:16 50.50673 0.46557 16730 ft 368 kts 279°
2026-04-25 14:16 50.51047 0.42569 16441 ft 367 kts 279°
2026-04-25 14:16 50.51416 0.38609 16184 ft 366 kts 279°
2026-04-25 14:17 50.51779 0.34705 15936 ft 365 kts 278°
2026-04-25 14:17 50.52147 0.30734 15660 ft 363 kts 278°
2026-04-25 14:17 50.52512 0.26779 15390 ft 362 kts 278°
2026-04-25 14:17 50.52867 0.22911 15121 ft 362 kts 278°
2026-04-25 14:18 50.53225 0.19003 14858 ft 360 kts 278°
2026-04-25 14:18 50.53582 0.15102 14590 ft 359 kts 278°
2026-04-25 14:18 50.53937 0.11192 14352 ft 358 kts 278°
2026-04-25 14:18 50.54288 0.07316 14068 ft 356 kts 278°
2026-04-25 14:19 50.54637 0.03447 13815 ft 356 kts 278°
2026-04-25 14:19 50.54982 -0.00392 13560 ft 354 kts 278°
2026-04-25 14:19 50.55327 -0.04236 13298 ft 354 kts 278°
2026-04-25 14:19 50.55783 -0.09357 12967 ft 352 kts 278°
2026-04-25 14:20 50.56126 -0.13208 12692 ft 350 kts 278°
2026-04-25 14:20 50.56239 -0.14489 12601 ft 350 kts 278°
2026-04-25 14:20 50.56685 -0.19536 12277 ft 350 kts 278°
2026-04-25 14:20 50.57014 -0.23281 12007 ft 341 kts 278°
2026-04-25 14:21 50.57337 -0.26974 11778 ft 335 kts 278°
2026-04-25 14:21 50.57648 -0.30538 11544 ft 327 kts 278°
2026-04-25 14:21 50.57958 -0.34097 11280 ft 319 kts 278°
2026-04-25 14:21 50.58251 -0.37481 11068 ft 312 kts 278°
2026-04-25 14:22 50.58717 -0.40797 10820 ft 302 kts 292°
2026-04-25 14:22 50.59793 -0.43567 10621 ft 296 kts 311°
2026-04-25 14:22 50.61223 -0.45864 10370 ft 288 kts 315°
2026-04-25 14:22 50.62617 -0.48054 10190 ft 283 kts 315°
2026-04-25 14:23 50.64024 -0.50274 9970 ft 283 kts 315°
2026-04-25 14:23 50.65404 -0.52455 9761 ft 281 kts 315°
2026-04-25 14:23 50.66780 -0.54631 9557 ft 282 kts 315°
2026-04-25 14:23 50.68162 -0.56817 9345 ft 280 kts 316°
2026-04-25 14:24 50.69707 -0.58648 9163 ft 280 kts 331°
2026-04-25 14:24 50.71428 -0.60093 8939 ft 280 kts 332°
2026-04-25 14:24 50.73163 -0.61553 8738 ft 278 kts 332°
2026-04-25 14:24 50.74861 -0.62987 8538 ft 278 kts 332°
2026-04-25 14:25 50.76568 -0.64430 8320 ft 277 kts 332°
2026-04-25 14:25 50.78286 -0.65884 7891 ft 281 kts 332°
2026-04-25 14:25 50.79980 -0.67320 7738 ft 269 kts 332°
2026-04-25 14:25 50.81086 -0.68259 7595 ft 273 kts 332°
2026-04-25 14:26 50.83322 -0.70159 7337 ft 272 kts 332°
2026-04-25 14:26 50.85007 -0.71593 7118 ft 271 kts 332°
2026-04-25 14:26 50.86685 -0.72923 6915 ft 270 kts 339°
2026-04-25 14:26 50.88483 -0.73827 6724 ft 270 kts 343°
2026-04-25 14:27 50.90279 -0.74676 6528 ft 269 kts 343°
2026-04-25 14:27 50.92099 -0.75544 6327 ft 269 kts 343°
2026-04-25 14:27 50.93876 -0.76393 6128 ft 269 kts 343°
2026-04-25 14:27 50.95672 -0.77253 5926 ft 269 kts 343°
2026-04-25 14:28 50.97469 -0.78115 5743 ft 267 kts 343°
2026-04-25 14:28 50.99256 -0.78974 5533 ft 266 kts 343°
2026-04-25 14:28 51.01028 -0.79743 5346 ft 264 kts 352°
2026-04-25 14:28 51.02858 -0.79629 5137 ft 263 kts
2026-04-25 14:29 51.04660 -0.79179 4959 ft 261 kts
2026-04-25 14:29 51.06444 -0.78748 4765 ft 257 kts
2026-04-25 14:29 51.08203 -0.78319 4586 ft 251 kts 10°
2026-04-25 14:29 51.09907 -0.77802 4404 ft 245 kts 12°
2026-04-25 14:30 51.10997 -0.77455 4303 ft 241 kts 11°
2026-04-25 14:30 51.14732 -0.76194 3983 ft 224 kts 15°
2026-04-25 14:30 51.16221 -0.75508 3945 ft 223 kts 16°
2026-04-25 14:31 51.17669 -0.74631 3691 ft 223 kts 33°
2026-04-25 14:31 51.18710 -0.72885 3625 ft 216 kts 55°
2026-04-25 14:31 51.19550 -0.70867 3478 ft 217 kts 56°
2026-04-25 14:31 51.20378 -0.68892 3387 ft 212 kts 56°
2026-04-25 14:32 51.21180 -0.66981 3285 ft 206 kts 55°
2026-04-25 14:32 51.21970 -0.65099 3191 ft 198 kts 56°
2026-04-25 14:32 51.22725 -0.63297 3098 ft 189 kts 55°
2026-04-25 14:32 51.23459 -0.61547 2996 ft 190 kts 55°
2026-04-25 14:33 51.24195 -0.59793 2885 ft 190 kts 55°
2026-04-25 14:33 51.24929 -0.58043 2629 ft 192 kts 56°
2026-04-25 14:33 51.25677 -0.56254 2259 ft 192 kts 56°
2026-04-25 14:33 51.26400 -0.54515 2018 ft 184 kts 56°
2026-04-25 14:34 51.27185 -0.52878 1976 ft 186 kts 39°
2026-04-25 14:34 51.28340 -0.52368 1938 ft 165 kts 348°
2026-04-25 14:34 51.29328 -0.53146 2013 ft 153 kts 330°
2026-04-25 14:34 51.30221 -0.53998 2005 ft 147 kts 330°
2026-04-25 14:35 51.31095 -0.54824 1985 ft 144 kts 331°
2026-04-25 14:35 51.31902 -0.55754 1977 ft 143 kts 318°
2026-04-25 14:35 51.32512 -0.56963 2010 ft 134 kts 303°
2026-04-25 14:35 51.32930 -0.58279 2002 ft 132 kts 291°
2026-04-25 14:36 51.33097 -0.59706 1980 ft 131 kts 274°
2026-04-25 14:36 51.33018 -0.61155 1980 ft 130 kts 259°
2026-04-25 14:36 51.32719 -0.62536 1980 ft 131 kts 246°
2026-04-25 14:36 51.32286 -0.63802 1980 ft 131 kts 239°
2026-04-25 14:37 51.31809 -0.65049 1981 ft 130 kts 239°
2026-04-25 14:37 51.31345 -0.66307 1941 ft 131 kts 241°
2026-04-25 14:37 51.30901 -0.67598 1727 ft 131 kts 243°
2026-04-25 14:37 51.30487 -0.68864 1545 ft 129 kts 243°
2026-04-25 14:38 51.30069 -0.70149 1341 ft 129 kts 243°
2026-04-25 14:38 51.29677 -0.71337 1163 ft 128 kts 243°
2026-04-25 14:38 51.29254 -0.72599 975 ft 129 kts 242°
2026-04-25 14:38 51.28835 -0.73854 763 ft 128 kts 243°
2026-04-25 14:39 51.28280 -0.75531 473 ft 126 kts 242°
2026-04-25 14:39 51.28009 -0.76350 349 ft 125 kts 243°
2026-04-25 14:39 51.27601 -0.77578 245 ft 116 kts 242°
2026-04-25 14:39 51.27289 -0.78511 241 ft 65 kts 242°
2026-04-25 14:40 51.27184 -0.78824 241 ft 34 kts 242°
2026-04-25 14:40 51.27093 -0.79132 241 ft 13 kts 289°
2026-04-25 14:40 51.27176 -0.79145 241 ft 14 kts 53°
2026-04-25 14:40 51.27231 -0.78984 241 ft 18 kts 60°
2026-04-25 14:41 51.27294 -0.78793 241 ft 19 kts 63°
2026-04-25 14:41 51.27382 -0.78623 241 ft 21 kts 40°
2026-04-25 14:41 51.27498 -0.78464 241 ft 23 kts 40°
2026-04-25 14:41 51.27613 -0.78302 241 ft 21 kts 40°
2026-04-25 14:42 51.27684 -0.78179 241 ft 14 kts 34°
2026-04-25 14:42 51.27747 -0.78109 241 ft 17 kts 35°
2026-04-25 14:42 51.27899 -0.77933 241 ft 22 kts 36°
2026-04-25 14:42 51.28018 -0.77868 241 ft 17 kts 13°
2026-04-25 14:43 51.28121 -0.77776 241 ft 16 kts 36°
2026-04-25 14:43 51.28139 -0.77675 241 ft 6 kts 131°
2026-04-25 14:43 51.28129 -0.77687 241 ft 0 kts 303°